Date String (YYYY-MM-DD hh:mm:ss) UTC,Instrument flags,absolute air pressure of the measurement (hPa),sample flow rate (lpm),inlet stack bypass flow (lpm),air temperature of the measurement (°C),ambient temperature measured by the external sensor (°C),aerosol sample conditioner tube jacket temperature (°C),OPC LED temperature (°C),internal box temperature (°C),relative humidity of the measurement (%),span deviation,mass concentration of particles derived from Lorenz-Mie calculation of OPC scattering (μg/m³),mass concentration of particles derived from Lorenz-Mie calculation of OPC scattering (μg/m³),mass concentration of particles derived from Lorenz-Mie calculation of OPC scattering (μg/m³)
DateTimeUTC,F1_M11,P_M11,Q1_M11,Q2_M11,T1_M11,T2_M11,T3_M11,T4_M11,T5_M11,U1_M11,ZSPAN_M11,X2_M11,X0_M11,X1_M11
2023-08-11 12:00:00,SystemResetWarning,0830.2,4.98,000.00,029.3,027.4,000.0,038.0,030.9,20.4,0000.0,0003.52,0006.49,0003.15
2023-08-11 12:01:00,SystemResetWarning,0830.2,5.00,000.00,029.4,027.6,000.0,038.0,031.0,20.4,0000.0,0003.49,0007.46,0003.15
2023-08-11 12:02:00,SystemResetWarning,0830.2,5.01,000.00,029.4,027.8,000.0,038.0,031.1,20.1,0000.0,0003.48,0007.63,0003.15
2023-08-11 12:03:00,SystemResetWarning,0830.3,5.01,000.00,029.4,027.9,000.0,038.0,031.1,20.3,0000.0,0003.51,0007.50,0003.16
2023-08-11 12:04:00,SystemResetWarning,0830.2,4.99,000.00,029.4,028.1,000.0,038.0,031.1,20.2,0000.0,0003.50,0007.34,0003.17
2023-08-11 12:05:00,SystemResetWarning,0830.3,4.99,000.00,029.5,028.2,000.0,038.0,031.2,20.1,0000.0,0003.50,0007.31,0003.18
2023-08-11 12:06:00,SystemResetWarning,0830.3,5.00,000.00,029.5,028.3,000.0,038.0,031.2,20.0,0000.0,0003.47,0007.08,0003.18
2023-08-11 12:07:00,SystemResetWarning,0830.3,5.01,000.00,029.5,028.3,000.0,038.1,031.2,19.8,0000.0,0003.47,0006.60,0003.18
2023-08-11 12:08:00,SystemResetWarning,0830.3,5.00,000.00,029.6,028.4,000.0,038.1,031.3,19.8,0000.0,0003.49,0006.59,0003.19
2023-08-11 12:09:00,SystemResetWarning,0830.3,5.01,000.00,029.6,028.5,000.0,038.1,031.3,19.8,0000.0,0003.49,0006.49,0003.21
2023-08-11 12:10:00,SystemResetWarning,0830.3,5.00,000.00,029.6,028.5,000.0,038.1,031.3,19.7,0000.0,0003.55,0006.69,0003.25
2023-08-11 12:11:00,SystemResetWarning,0830.3,5.00,000.00,029.6,028.1,000.0,038.1,031.3,19.7,0000.0,0003.62,0007.64,0003.28
2023-08-11 12:12:00,SystemResetWarning,0830.3,4.99,000.00,029.6,026.2,000.0,038.0,031.1,19.7,0000.0,0003.69,0007.53,0003.32
2023-08-11 12:13:00,SystemResetWarning,0830.3,5.01,000.00,029.5,025.5,000.0,037.9,030.8,19.9,0000.0,0003.75,0007.75,0003.37
2023-08-11 12:14:00,SystemResetWarning,0830.3,5.00,000.00,029.4,025.6,000.0,037.9,030.6,20.0,0000.0,0003.75,0007.73,0003.39
2023-08-11 12:15:00,SystemResetWarning,0830.4,4.99,000.00,029.4,026.0,000.0,037.9,030.6,20.1,0000.0,0003.81,0007.85,0003.41
2023-08-11 12:16:00,SystemResetWarning,0830.4,5.00,000.00,029.3,026.4,000.0,037.9,030.8,20.1,0000.0,0003.86,0007.92,0003.44
2023-08-11 12:17:00,SystemResetWarning,0830.4,5.00,000.00,029.3,026.7,000.0,038.0,030.8,20.1,0000.0,0003.93,0008.18,0003.47
2023-08-11 12:18:00,SystemResetWarning,0830.4,5.01,000.00,029.3,027.1,000.0,038.0,030.9,20.1,0000.0,0004.00,0008.35,0003.49
2023-08-11 12:19:00,SystemResetWarning,0830.4,4.99,000.00,029.4,027.3,000.0,038.0,030.9,20.1,0000.0,0004.03,0008.66,0003.51
2023-08-11 12:20:00,SystemResetWarning,0830.4,5.00,000.00,029.4,027.6,000.0,038.0,031.0,20.1,0000.0,0004.04,0008.85,0003.51
2023-08-11 12:21:00,SystemResetWarning,0830.4,5.00,000.00,029.4,027.8,000.0,038.0,031.1,20.1,0000.0,0004.01,0009.08,0003.49
2023-08-11 12:22:00,SystemResetWarning,0830.4,5.00,000.00,029.4,027.9,000.0,038.0,031.1,20.0,0000.0,0003.96,0008.60,0003.47
2023-08-11 12:23:00,SystemResetWarning,0830.4,5.00,000.00,029.5,028.0,000.0,038.0,031.1,19.9,0000.0,0003.91,0008.10,0003.44
2023-08-11 12:24:00,SystemResetWarning,0830.5,5.00,000.00,029.5,028.2,000.0,038.0,031.2,19.9,0000.0,0003.86,0007.74,0003.41
2023-08-11 12:25:00,SystemResetWarning,0830.5,4.99,000.00,029.5,028.3,000.0,038.0,031.2,19.8,0000.0,0003.83,0007.72,0003.40
2023-08-11 12:26:00,SystemResetWarning,0830.6,4.99,000.00,029.5,028.3,000.0,038.1,031.3,19.8,0000.0,0003.81,0007.66,0003.42
2023-08-11 12:27:00,SystemResetWarning,0830.5,5.00,000.00,029.6,028.4,000.0,038.1,031.3,19.9,0000.0,0003.82,0007.67,0003.43
2023-08-11 12:28:00,SystemResetWarning,0830.5,5.01,000.00,029.6,028.5,000.0,038.1,031.3,19.9,0000.0,0003.82,0007.60,0003.44
2023-08-11 12:29:00,SystemResetWarning,0830.5,5.01,000.00,029.6,028.5,000.0,038.1,031.3,20.1,0000.0,0003.79,0007.50,0003.44
2023-08-11 12:30:00,SystemResetWarning,0830.5,4.99,000.00,029.7,027.6,000.0,038.1,031.2,20.2,0000.0,0003.81,0007.31,0003.45
2023-08-11 12:31:00,SystemResetWarning,0830.7,4.99,000.00,029.6,026.0,000.0,038.0,031.0,20.2,0000.0,0003.87,0007.41,0003.48
2023-08-11 12:32:00,SystemResetWarning,0830.4,5.02,000.00,029.5,025.7,000.0,037.9,030.9,20.3,0000.0,0003.88,0006.89,0003.49
2023-08-11 12:33:00,SystemResetWarning,0830.5,4.99,000.00,029.5,026.0,000.0,037.9,030.7,20.4,0000.0,0003.89,0006.66,0003.51
2023-08-11 12:34:00,SystemResetWarning,0830.6,4.99,000.00,029.4,026.3,000.0,037.9,030.7,20.6,0000.0,0003.92,0006.64,0003.52
2023-08-11 12:35:00,SystemResetWarning,0830.5,5.00,000.00,029.4,026.6,000.0,038.0,030.8,20.6,0000.0,0003.94,0006.58,0003.54
2023-08-11 12:36:00,SystemResetWarning,0830.6,5.01,000.00,029.4,027.0,000.0,038.0,030.9,20.5,0000.0,0003.97,0006.49,0003.55
2023-08-11 12:37:00,SystemResetWarning,0830.6,5.00,000.00,029.4,027.2,000.0,038.0,031.0,20.4,0000.0,0003.99,0006.56,0003.55
2023-08-11 12:38:00,SystemResetWarning,0830.6,5.00,000.00,029.4,027.5,000.0,038.0,031.0,20.3,0000.0,0004.00,0006.65,0003.54
2023-08-11 12:39:00,SystemResetWarning,0830.6,5.00,000.00,029.4,027.7,000.0,038.0,031.0,20.3,0000.0,0004.01,0006.61,0003.54
2023-08-11 12:40:00,SystemResetWarning,0830.7,5.01,000.00,029.4,027.8,000.0,038.0,031.1,20.3,0000.0,0004.01,0007.00,0003.55
2023-08-11 12:41:00,SystemResetWarning,0830.7,4.99,000.00,029.5,028.0,000.0,038.0,031.1,20.2,0000.0,0003.95,0006.71,0003.52
2023-08-11 12:42:00,SystemResetWarning,0830.7,4.99,000.00,029.5,028.1,000.0,038.0,031.2,20.1,0000.0,0003.88,0006.23,0003.49
2023-08-11 12:43:00,SystemResetWarning,0830.6,5.00,000.00,029.5,028.2,000.0,038.1,031.2,20.0,0000.0,0003.84,0006.12,0003.48
2023-08-11 12:44:00,SystemResetWarning,0830.7,5.01,000.00,029.5,028.3,000.0,038.1,031.2,19.9,0000.0,0003.84,0006.20,0003.47
2023-08-11 12:45:00,SystemResetWarning,0830.8,5.01,000.00,029.6,028.4,000.0,038.1,031.3,20.0,0000.0,0003.83,0006.30,0003.46
2023-08-11 12:46:00,SystemResetWarning,0830.8,5.00,000.00,029.6,028.5,000.0,038.1,031.3,21.0,0000.0,0003.85,0006.44,0003.46
2023-08-11 12:47:00,SystemResetWarning,0830.8,4.99,000.00,029.6,028.5,000.0,038.1,031.4,20.7,0000.0,0003.86,0007.07,0003.47
2023-08-11 12:48:00,SystemResetWarning,0830.8,4.99,000.00,029.7,028.5,000.0,038.1,031.4,20.5,0000.0,0003.87,0007.48,0003.47
2023-08-11 12:49:00,SystemResetWarning,0830.8,5.00,000.00,029.7,027.1,000.0,038.0,031.2,20.4,0000.0,0003.85,0007.84,0003.47
2023-08-11 12:50:00,SystemResetWarning,0830.7,5.00,000.00,029.6,026.0,000.0,037.9,031.0,20.5,0000.0,0003.86,0008.11,0003.48
2023-08-11 12:51:00,SystemResetWarning,0830.7,5.00,000.00,029.6,026.1,000.0,037.9,030.8,20.4,0000.0,0003.88,0008.22,0003.48
2023-08-11 12:52:00,SystemResetWarning,0830.7,5.02,000.00,029.5,026.4,000.0,038.0,030.8,20.3,0000.0,0003.91,0008.21,0003.49
2023-08-11 12:53:00,SystemResetWarning,0830.7,5.00,000.00,029.5,026.7,000.0,038.0,030.9,20.4,0000.0,0003.96,0008.32,0003.54
2023-08-11 12:54:00,SystemResetWarning,0830.7,5.00,000.00,029.5,027.0,000.0,038.0,031.0,20.3,0000.0,0004.01,0008.40,0003.58
2023-08-11 12:55:00,SystemResetWarning,0830.8,5.00,000.00,029.5,027.3,000.0,038.0,031.1,20.4,0000.0,0004.04,0008.41,0003.61
2023-08-11 12:56:00,SystemResetWarning,0830.8,5.00,000.00,029.5,027.6,000.0,038.0,031.1,20.7,0000.0,0004.06,0008.43,0003.64
2023-08-11 12:57:00,SystemResetWarning,0830.9,5.00,000.00,029.5,027.8,000.0,038.1,031.2,21.3,0000.0,0004.08,0008.49,0003.65
2023-08-11 12:58:00,SystemResetWarning,0830.8,5.00,000.00,029.6,028.0,000.0,038.1,031.2,21.3,0000.0,0004.10,0008.88,0003.66
2023-08-11 12:59:00,SystemResetWarning,0830.8,5.00,000.00,029.6,028.2,000.0,038.1,031.3,20.9,0000.0,0004.11,0008.76,0003.66
